This demonstration page uses our WeatherBlox Daily Observations layout. Learn more.

Left ArrowRight Arrow

Hourly Observations for August 10, 2022

Temp ( °F °C ) Dew Point ( °F °C ) Humidity (%) Winds ( mph kmh ) Pressure ( in mb ) Visibility ( mi km ) Precip ( " mm )
12:54 am 00:54 Clear 68 20 61 16.1 78 78 SSE 6 9 30.10 1019 10 16 0.00 0.00
1:54 am 01:54 Clear 69 20.6 61 16.1 75 75 S 6 9 30.10 1019 10 16 0.00 0.00
2:54 am 02:54 Clear 69 20.6 61 16.1 75 75 S 5 7 30.12 1020 10 16 0.00 0.00
6:54 am 06:54 Sunny 63 17.2 59 15 87 87 NW 3 6 30.16 1021 10 16 0.00 0.00
7:54 am 07:54 Mostly Cloudy 70 21.1 62 16.7 76 76 Calm 30.17 1022 10 16 0.00 0.00
8:54 am 08:54 Mostly Sunny 74 23.3 63 17.2 69 69 SSW 6 9 30.18 1022 10 16 0.00 0.00
9:54 am 09:54 Mostly Sunny 81 27.2 65 18.3 58 58 SSW 10 17 30.18 1022 10 16 0.00 0.00
10:54 am 10:54 Partly Cloudy 83 28.3 65 18.3 55 55 S 5 7 30.18 1022 10 16 0.00 0.00
11:54 am 11:54 Sunny 87 30.6 65 18.3 48 48 SW 6 9 30.18 1022 10 16 0.00 0.00
12:54 pm 12:54 Sunny 89 31.7 64 17.8 44 44 SE 8 13 30.16 1021 10 16 0.00 0.00
1:54 pm 13:54 Sunny 93 33.9 62 16.7 36 36 ESE 7 11 30.14 1021 10 16 0.00 0.00
2:54 pm 14:54 Sunny 94 34.4 63 17.2 36 36 SE 6 9 30.12 1020 10 16 0.00 0.00
3:54 pm 15:54 Sunny 94 34.4 63 17.2 36 36 VRB 6 9 30.10 1019 10 16 0.00 0.00
4:54 pm 16:54 Sunny 96 35.6 63 17.2 34 34 S 5 7 30.10 1019 10 16 0.00 0.00
5:54 pm 17:54 Sunny 94 34.4 64 17.8 37 37 SSE 9 15 30.09 1019 10 16 0.00 0.00
6:54 pm 18:54 Sunny 93 33.9 64 17.8 39 39 SE 9 15 30.08 1019 10 16 0.00 0.00
7:54 pm 19:54 Sunny 89 31.7 64 17.8 44 44 ESE 9 15 30.09 1019 10 16 0.00 0.00
8:54 pm 20:54 Clear 85 29.4 64 17.8 50 50 SSE 9 15 30.10 1019 10 16 0.00 0.00
9:54 pm 21:54 Clear 79 26.1 63 17.2 58 58 S 8 13 30.12 1020 10 16 0.00 0.00
10:54 pm 22:54 Clear 78 25.6 63 17.2 60 60 S 7 11 30.13 1020 10 16 0.00 0.00
11:54 pm 23:54 Clear 74 23.3 63 17.2 69 69 SSE 7 11 30.14 1021 10 16 0.00 0.00

Powered by AerisWeather